This is the latest recevied weather packets stored in our database for station/object M0HZQ-1. If no packets are shown the sender has not sent any weather packets the latest 10 day(s).
| Time | Temp. | Humidity | Pressure | Rain* | Wind** | Luminosity | Snow |
|---|---|---|---|---|---|---|---|
| 1777766307 | 18.33° C | 56% | 1011.3 hPa | 0 mm | - | - | - |
| 1777765234 | 18.33° C | 56% | 1011.4 hPa | 0 mm | - | - | - |
| 1777764177 | 18.89° C | 55% | 1011.5 hPa | 0 mm | - | - | - |
| 1777763174 | 18.89° C | 55% | 1011.6 hPa | 0 mm | - | - | - |
| 1777762177 | 18.89° C | 55% | 1011.6 hPa | 0 mm | - | - | - |
| 1777761109 | 18.89° C | 54% | 1011.6 hPa | 0 mm | - | - | - |
| 1777759917 | 19.44° C | 54% | 1011.7 hPa | 0 mm | - | - | - |
| 1777758949 | 18.89° C | 54% | 1011.6 hPa | 0 mm | - | - | - |
| 1777757984 | 19.44° C | 53% | 1011.8 hPa | 0 mm | - | - | - |
| 1777756834 | 19.44° C | 53% | 1011.7 hPa | 0 mm | - | - | - |
| 1777755637 | 19.44° C | 53% | 1012.1 hPa | 0 mm | - | - | - |
| 1777754463 | 20° C | 52% | 1012.3 hPa | 0 mm | - | - | - |
| 1777753457 | 20° C | 52% | 1012 hPa | 0 mm | - | - | - |
| 1777752389 | 20° C | 52% | 1012.4 hPa | 0 mm | - | - | - |
| 1777751414 | 20° C | 51% | 1012.4 hPa | 0 mm | - | - | - |
| 1777750429 | 20° C | 51% | 1012.4 hPa | 0 mm | - | - | - |
| 1777749276 | 19.44° C | 51% | 1012.3 hPa | 0 mm | - | - | - |
| 1777748269 | 20° C | 51% | 1012.4 hPa | 0 mm | - | - | - |
| 1777747129 | 20.56° C | 50% | 1012.4 hPa | 0 mm | - | - | - |
| 1777746059 | 20.56° C | 50% | 1012.5 hPa | 0 mm | - | - | - |
| 1777745104 | 20.56° C | 50% | 1012.8 hPa | 0 mm | - | - | - |
| 1777743989 | 20° C | 50% | 1012.7 hPa | 0 mm | - | - | - |
| 1777743004 | 20° C | 49% | 1013 hPa | 0 mm | - | - | - |
| 1777742029 | 20.56° C | 46% | 1013.2 hPa | 0 mm | - | - | - |
| 1777741029 | 21.67° C | 41% | 1013.4 hPa | 0 mm | - | - | - |
* Rain latest hour (hover to see other rain measurements)
** Current wind speed in m/s (hover to see current wind gust speed)